Starlink 31179

operational
NORAD ID: 58750 Int'l Des: 2024-005 Owner: SPXS Country: US Constellation: starlink
LEOCIRCULAR

Über Starlink 31179

Beschreibung wird geladen...

Live-Position

3D-Globus wird geladen...

Nächste Überflüge

Höhenverlauf

Altitude vs Time

uPlot chart will show altitude changes over time

Zweizeiliger Elementsatz

1 58750U 24005Y 26063.16670139 .02111656 00000-0 82145-1 0 9999
2 58750 42.9997 250.7271 0001883 319.7420 322.5987 15.22200066 5710
Epoch: 4. März 2026 • Age: 23 hours

Aktueller Status

Höhe 496.6 km
Geschwindigkeit 7.62 km/s
Subsatellitenpunkt -29.78°S, 60.72°E
Startdatum 7. Jan. 2024
Alter 2.1 years
Typ internet

Technische Details

Klassifizierung Payload
Masse 730.00 kg
Trockenmasse 700.00 kg
Gesamtmasse 730.00 kg
Länge 0.30 m
Durchmesser 4.10 m
Spannweite 29.00 m
Form Box + pan
Hersteller SPXS
Bus-Typ Starlink V2M
Phasenstatus In Orbit
Besitzer/Staat SPXS/US

Große Konstellationen

Loading constellations...